Location: Vancouver
(49.2500°N, 123.1330°W)
Time: 00:32:59
(UTC-07:00)

Oscar 11 - Visible Passes

Search period start: 18 October 2017 00:00
Search period end: 28 October 2017 00:00
Orbit: 613 x 626 km, 97.7° (Epoch: 17 October)

Date Brightness Start Highest point End Pass type
(mag) Time Alt. Az. Time Alt. Az. Time Alt. Az.
18 Oct 8.1 20:09:07 28° NE 20:09:07 28° NE 20:12:04 10° N visible
18 Oct 9.4 21:46:17 22° NW 21:46:17 22° NW 21:48:16 10° NNW visible
19 Oct 8.0 20:26:44 34° NNE 20:26:44 34° NNE 20:29:33 10° N visible
19 Oct 9.9 22:03:55 16° NW 22:03:55 16° NW 22:05:11 10° NW visible
20 Oct 8.2 20:44:22 34° N 20:44:22 34° N 20:46:57 10° N visible
20 Oct 10.3 22:21:32 11° NW 22:21:32 11° NW 22:21:49 10° NW visible
21 Oct 8.9 19:24:49 13° NE 19:24:49 13° NE 19:26:30 10° NNE visible
21 Oct 8.5 21:01:59 31° NNW 21:01:59 31° NNW 21:04:15 10° NNW visible
22 Oct 8.7 19:42:26 17° NE 19:42:26 17° NE 19:44:26 10° NNE visible
22 Oct 9.0 21:19:36 25° NNW 21:19:36 25° NNW 21:21:29 10° NNW visible
23 Oct 8.6 20:00:02 21° NNE 20:00:02 21° NNE 20:02:08 10° N visible
23 Oct 9.5 21:37:13 19° NW 21:37:13 19° NW 21:38:36 10° NNW visible
24 Oct 8.6 20:17:39 23° NNE 20:17:39 23° NNE 20:19:39 10° N visible
24 Oct 10.0 21:54:50 14° NW 21:54:50 14° NW 21:55:36 10° NW visible
25 Oct 8.7 20:35:16 24° N 20:35:16 24° N 20:37:06 10° N visible
26 Oct 9.2 19:15:42 10° NE 19:15:42 10° NE 19:16:01 10° NE visible
26 Oct 9.0 20:52:53 22° N 20:52:53 22° N 20:54:27 10° N visible
27 Oct 9.1 19:33:18 13° NE 19:33:18 13° NE 19:34:19 10° NNE visible
27 Oct 9.3 21:10:29 19° NNW 21:10:29 19° NNW 21:11:43 10° NNW visible
